SCP
0 0 0 0 0 0 0 0 0 0 0 0 0 0 0 0 0 0 0 0 0 0 0 0 0 0 0 0 0 0 0 0 0 0 0 0 0 0 0 0 0 0 0 0
0 0 0 0 0 0 0 0 0 0 0 0 0 0 0 0 0 0 0 0 0 0 0 0 0 0 0 0 0 0 0 0 0 0 0 0 0 0 0 0 0 0 0 0
0 0 0 0 0 0 0 0 0 0 0 0 0 0 0 0 0 0 0 0 0 0 0 0 0 0 0 0 0 0 0 0 0 0 0 0 0 0 0 0 0 0 0 0
0 0 0 0 0 0 0 0 0 0 0 0 0 0 0 0 0 0 0 0 0 0 0 0 0 0 0 0 0 0 0 0 0 0 0 0 0 0 0 0 0 0 0 0
0 0 0 0 0 0 0 0 0 0 0 0 0 0 0 0 0 0 0 0 0 0 0 0 0 0 0 0 0 0 0 0 0 0 0 0 0 0 0 0 0 0 0 0
0 0 0 0 0 0 0 0 0 0 0 0 0 0 0 0 0 0 0 0 0 0 0 0 0 0 0 0 0 0 0 0 0 0 0 0 0 0 0 0 0 0 0 0
0 0 0 0 0 0 0 0 0 0 0 0 0 0 0 0 0 0 0 0 0 0 0 0 0 0 0 0 0 0 0 0 0 0 0 0 0 0 0 0 0 0 0 0
0 0 0 0 0 0 0 0 0 0 0 0 0 0 0 0 0 0 0 0 0 0 0 0 0 0 0 0 0 0 0 0 0 0 0 0 0 0 0 0 0 0 0 0
0 0 0 0 0 0 0 0 0 0 0 0 0 0 0 0 0 0 0 0 0 0 0 0 0 0 0 0 0 0 0 0 0 0 0 0 0 0 0 0 0 0 0 0
0 0 0 0 0 0 0 0 0 0 0 0 0 0 0 0 0 0 0 0 0 0 0 0 0 0 0 0 0 0 0 0 0 0 0 0 0 0 0 0 0 0 0 0
0 0 0 0 0 0 0 0 0 0 0 0 0 0 0 0 0 0 0 0 0 0 0 0 0 0 0 0 0 0 0 0 0 0 0 0 0 0 0 0 0 0 0 0
0 0 0 0 0 0 0 0 0 0 0 0 0 0 0 0 0 0 0 0 0 0 0 0 0 0 0 0 0 0 0 0 0 0 0 0 0 0 0 0 0 0 0 0
0 0 0 0 0 0 0 0 0 0 0 0 0 0 0 0 0 0 0 0 0 0 0 0 0 0 0 0 0 0 0 0 0 0 0 0 0 0 0 0 0 0 0 0
0 0 0 0 0 0 0 0 0 0 0 0 0 0 0 0 0 0 0 0 0 0 0 0 0 0 0 0 0 0 0 0 0 0 0 0 0 0 0 0 0 0 0 0
0 0 0 0 0 0 0 0 0 0 0 0 0 0 0 0 0 0 0 0 0 0 0 0 0 0 0 0 0 0 0 0 0 0 0 0 0 0 0 0 0 0 0 0
0 0 0 0 0 0 0 0 0 0 0 0 0 0 0 0 0 0 0 0 0 0 0 0 0 0 0 0 0 0 0 0 0 0 0 0 0 0 0 0 0 0 0 0
0 0 0 0 0 0 0 0 0 0 0 0 0 0 0 0 0 0 0 0 0 0 0 0 0 0 0 0 0 0 0 0 0 0 0 0 0 0 0 0 0 0 0 0
0 0 0 0 0 0 0 0 0 0 0 0 0 0 0 0 0 0 0 0 0 0 0 0 0 0 0 0 0 0 0 0 0 0 0 0 0 0 0 0 0 0 0 0
0 0 0 0 0 0 0 0 0 0 0 0 0 0 0 0 0 0 0 0 0 0 0 0 0 0 0 0 0 0 0 0 0 0 0 0 0 0 0 0 0 0 0 0
0 0 0 0 0 0 0 0 0 0 0 0 0 0 0 0 0 0 0 0 0 0 0 0 0 0 0 0 0 0 0 0 0 0 0 0 0 0 0 0 0 0 0 0
0 0 0 0 0 0 0 0 0 0 0 0 0 0 0 0 0 0 0 0 0 0 0 0 0 0 0 0 0 0 0 0 0 0 0 0 0 0 0 0 0 0 0 0
0 0 0 0 0 0 0 0 0 0 0 0 0 0 0 0 0 0 0 0 0 0 0 0 0 0 0 0 0 0 0 0 0 0 0 0 0 0 0 0 0 0 0 0
0 0 0 0 0 0 0 0 0 0 0 0 0 0 0 0 0 0 0 0 0 0 0 0 0 0 0 0 0 0 0 0 0 0 0 0 0 0 0 0 0 0 0 0
0 0 0 0 0 0 0 0 0 0 0 0 0 0 0 0 0 0 0 0 0 0 0 0 0 0 0 0 0 0 0 0 0 0 0 0 0 0 0 0 0 0 0 0
0 0 0 0 0 0 0 0 0 0 0 0 0 0 0 0 0 0 0 0 0 0 0 0 0 0 0 0 0 0 0 0 0 0 0 0 0 0 0 0 0 0 0 0
0 0 0 0 0 0 0 0 0 0 0 0 0 0 0 0 0 0 0 0 0 0 0 0 0 0 0 0 0 0 0 0 0 0 0 0 0 0 0 0 0 0 0 0
0 0 0 0 0 0 0 0 0 0 0 0 0 0 0 0 0 0 0 0 0 0 0 0 0 0 0 0 0 0 0 0 0 0 0 0 0 0 0 0 0 0 0 0
Wind_Speed
16 6 9 14 21 25 27 25 18 17 19 16 16 15 14 13 14 16 17 19 20 18 17 16 16 16 16 15 14 13 12 12 11 10 8 8 7 6 6 5 4 2 2 2
11 11 9 11 20 26 27 25 26 21 18 8 12 10 11 12 15 17 18 19 18 17 16 16 17 16 16 16 15 13 13 12 10 9 8 8 8 7 6 5 4 4 4 4
11 7 4 20 22 21 20 20 20 26 18 8 10 14 16 16 16 17 17 16 16 16 15 15 16 16 17 16 13 11 11 9 9 9 9 9 8 7 7 6 5 5 5 5
5 9 19 14 4 19 22 19 17 10 5 11 12 10 8 11 14 14 12 11 12 11 12 12 12 13 13 11 11 11 11 10 10 10 10 9 9 8 7 6 6 5 5 5
7 10 13 5 5 11 16 17 15 13 7 6 6 5 4 7 9 9 10 9 9 9 9 9 11 11 10 10 10 11 11 11 11 11 11 10 10 9 8 7 6 6 5 6
8 9 14 6 6 5 7 9 8 13 12 11 11 8 8 9 9 8 7 6 6 7 7 8 9 9 10 11 11 12 13 12 11 11 11 11 11 9 7 6 6 5 6 6
12 12 10 2 6 9 11 8 5 11 12 14 14 7 4 9 9 8 7 6 6 7 7 8 8 9 10 10 13 12 9 8 9 10 10 10 8 7 7 6 5 5 6 6
10 12 12 10 11 12 4 3 5 8 10 12 9 6 7 9 8 8 7 6 6 6 7 6 8 10 10 12 11 7 8 9 9 9 8 7 8 7 6 6 6 6 6 6
9 6 3 11 7 3 3 5 6 8 9 11 10 10 9 8 8 7 7 6 6 7 6 5 7 9 12 10 6 7 8 8 8 8 7 7 8 8 6 6 6 5 5 5
3 2 2 5 3 4 5 5 6 7 9 11 10 11 9 7 7 6 6 6 6 6 7 7 7 9 10 5 6 8 8 8 8 8 8 7 6 6 6 7 6 6 6 5
3 2 3 5 9 9 7 3 4 4 6 10 10 8 9 7 7 7 7 6 6 7 9 9 7 7 6 5 7 8 8 7 8 7 7 7 7 7 8 7 7 7 6 5
7 9 8 9 12 12 10 9 8 7 6 5 8 9 8 8 7 7 7 6 6 8 8 7 5 5 5 6 7 8 8 8 7 6 6 6 6 6 12 12 13 16 15 13
5 8 7 4 6 10 11 10 9 10 10 9 9 9 9 8 7 7 6 7 8 8 7 5 5 4 4 5 7 7 7 7 5 6 6 6 6 6 5 7 11 14 15 15
4 6 4 5 5 7 8 8 7 6 7 7 7 7 7 7 6 7 8 7 6 5 4 4 4 4 4 5 6 5 5 5 5 4 4 5 5 5 5 5 5 5 7 11
8 7 6 5 5 4 4 4 4 6 6 6 6 7 8 9 9 7 4 4 5 4 4 4 4 4 4 5 5 5 4 3 3 3 3 4 4 5 5 6 6 6 5 6
7 6 4 4 6 6 5 6 8 10 9 8 7 8 8 6 4 4 4 5 6 5 4 4 4 4 4 4 4 3 3 3 3 3 3 4 4 5 5 6 6 6 6 5
5 7 7 7 9 8 8 10 11 11 8 8 8 6 5 6 6 5 4 4 5 5 4 4 4 4 3 3 3 2 2 3 3 3 4 4 5 6 6 6 6 7 7 7
5 6 5 6 7 7 7 7 8 8 7 5 4 6 7 8 8 7 7 6 6 6 4 3 3 4 3 3 2 2 2 2 2 3 3 4 5 5 6 7 7 8 7 7
6 5 4 3 3 3 2 1 1 0 1 3 5 6 5 5 7 8 7 6 6 5 3 1 3 4 3 2 3 2 2 2 3 3 4 5 5 6 6 7 7 8 7 6
8 8 7 7 8 6 4 4 4 5 4 5 8 8 8 7 7 8 7 5 3 3 4 2 2 2 2 2 2 2 2 3 3 3 4 5 6 6 6 7 7 7 7 7
8 8 7 7 7 8 7 5 5 6 6 6 7 9 9 7 6 5 5 5 3 3 2 2 1 1 1 1 2 2 2 3 4 4 4 5 6 6 7 7 7 7 7 7
6 6 6 6 6 7 7 6 6 7 8 8 9 9 9 7 6 4 3 3 3 2 1 1 1 2 2 2 2 2 3 4 4 4 5 5 6 6 7 7 7 7 6 6
5 5 5 5 5 5 6 7 7 7 7 7 7 6 6 5 3 3 4 2 2 1 1 1 2 4 4 3 2 3 4 4 5 5 5 6 6 6 7 7 7 6 6 6
4 4 4 4 4 6 7 6 5 6 6 6 5 5 4 4 2 2 2 2 0 1 1 2 5 4 1 1 2 3 4 4 5 5 6 6 6 6 7 7 7 7 7 8
3 3 3 4 5 4 4 4 5 5 5 4 4 4 3 2 2 1 0 1 2 2 2 3 5 4 2 3 3 4 4 5 5 5 6 6 6 7 7 7 7 7 7 7
3 3 3 4 3 2 2 2 2 2 2 2 2 2 1 1 1 0 1 1 3 3 3 3 3 3 3 4 4 5 5 6 6 6 7 7 7 8 7 7 9 8 7 7
3 2 2 3 3 3 2 2 2 2 1 1 1 0 1 1 1 1 2 2 2 3 3 3 3 3 4 4 5 5 6 6 6 6 6 6 7 7 7 8 7 7 7 7
Wind_Direction
240 224 188 201 204 204 212 221 228 232 227 212 202 201 194 188 183 187 192 197 200 201 200 198 198 199 198 198 194 192 194 199 202 196 187 179 176 176 176 181 185 196 219 247
233 228 218 232 222 212 216 224 233 244 243 208 199 190 185 184 184 191 197 201 203 204 202 201 200 200 199 200 196 194 199 204 199 187 181 181 180 178 182 187 192 204 220 237
226 183 187 240 225 213 216 220 222 233 238 147 181 196 199 194 193 198 200 201 202 203 204 203 202 200 201 200 192 190 198 198 190 187 187 187 183 185 193 196 199 212 224 234
173 160 221 237 205 207 217 222 216 221 182 176 195 197 202 196 195 199 198 199 201 201 203 203 201 200 200 191 185 190 197 199 194 192 192 186 187 196 199 198 204 215 223 235
177 214 242 253 201 189 202 226 213 211 182 143 116 117 215 206 198 195 193 193 194 195 194 191 194 192 183 183 186 192 201 203 198 193 191 188 195 200 198 199 208 216 222 231
191 211 229 230 154 168 154 231 203 198 185 155 149 197 218 182 187 190 183 181 180 174 175 187 190 176 178 187 190 202 208 205 195 190 190 194 197 194 192 198 210 217 227 233
215 228 243 136 151 155 179 225 176 185 178 170 190 210 142 152 169 177 179 179 171 169 182 193 176 170 187 193 206 211 200 186 184 188 191 191 185 184 184 197 210 223 236 242
211 224 230 147 159 182 178 113 151 169 174 180 183 140 142 157 165 170 175 177 175 183 201 195 173 179 197 211 214 191 175 181 184 182 179 175 175 179 187 197 211 226 234 244
203 216 82 162 168 144 154 165 177 174 178 174 168 170 169 172 176 181 187 190 187 195 209 203 186 192 208 218 187 165 173 183 177 171 174 172 179 183 190 200 219 227 228 239
199 206 154 168 122 178 200 201 189 177 168 170 173 176 179 180 183 190 196 198 191 192 211 220 204 205 219 200 153 164 182 182 174 176 182 183 193 196 200 204 213 221 227 234
180 118 128 217 215 207 202 184 156 154 165 179 176 178 182 188 195 200 203 198 190 200 215 224 210 207 204 168 159 177 184 182 184 190 193 191 202 209 210 217 218 220 224 227
188 181 177 206 212 199 196 199 188 176 179 188 191 194 192 199 203 203 205 197 198 208 218 222 200 194 177 166 170 177 183 188 189 192 193 200 207 224 234 236 238 240 239 236
156 174 189 200 186 184 198 203 194 196 198 200 205 207 205 208 206 202 203 201 206 209 211 206 188 181 162 161 169 181 191 187 189 193 195 202 209 221 237 238 247 254 256 259
150 139 174 208 198 191 197 200 193 200 209 208 207 203 205 210 205 202 209 208 199 189 184 175 167 164 148 156 164 173 188 184 192 201 207 211 217 226 234 240 246 246 251 259
200 194 194 197 201 197 194 179 189 217 220 220 208 205 204 208 212 208 187 151 140 147 153 150 151 140 131 144 153 165 182 186 194 207 215 223 229 233 236 239 246 252 255 258
207 223 239 235 228 215 192 195 212 228 227 224 217 215 212 202 175 135 128 145 159 167 155 144 137 124 129 138 147 158 184 195 199 211 220 226 231 236 240 243 246 247 248 249
177 212 220 233 240 234 217 215 221 231 229 224 222 204 164 143 135 135 118 95 100 106 114 123 120 118 130 143 158 165 179 191 201 220 229 234 239 243 247 249 250 251 251 248
235 238 224 224 234 236 233 224 226 231 230 220 180 158 162 168 171 153 136 122 110 98 92 97 124 128 131 144 161 169 179 197 212 228 239 244 249 252 253 254 256 257 258 260
3 354 347 336 326 289 279 266 261 282 66 131 143 145 134 126 126 131 136 138 139 136 132 121 131 121 141 170 175 179 194 213 229 238 246 251 253 254 254 255 257 257 258 255
13 15 26 33 29 28 35 39 57 65 64 95 110 111 107 107 117 127 130 120 96 91 118 124 119 139 151 191 169 182 206 228 244 252 253 254 257 259 258 257 256 256 253 251
11 18 30 41 45 40 37 43 69 79 73 87 108 115 114 110 111 120 129 122 106 110 129 146 162 173 189 189 197 208 222 237 248 255 258 261 263 264 263 261 259 256 254 251
9 23 39 49 61 52 38 46 68 83 85 86 93 105 112 113 111 97 72 95 124 140 154 174 216 232 230 223 223 228 236 243 250 253 255 256 258 261 262 261 259 258 255 253
20 36 52 56 66 70 58 51 57 73 83 90 99 108 110 111 115 120 119 119 142 195 212 250 268 258 246 230 234 242 248 250 254 255 255 256 257 258 262 263 260 258 257 254
34 46 57 65 77 80 71 56 58 67 75 78 75 80 96 107 91 59 81 110 134 295 287 277 279 287 275 249 258 259 258 258 259 260 261 261 260 259 259 261 261 260 258 258
37 50 60 74 77 77 86 89 81 76 76 75 72 63 52 48 88 108 82 313 302 296 287 296 302 312 304 270 266 265 265 262 264 265 263 262 262 262 261 260 259 261 260 257
33 48 49 54 64 76 79 85 88 85 89 94 80 60 45 35 34 320 277 274 275 278 278 280 282 280 269 267 266 267 268 269 268 264 263 265 265 265 263 262 263 261 261 260
54 58 63 64 49 42 48 64 82 80 66 87 108 80 333 316 300 288 284 281 280 277 275 274 273 270 270 270 271 270 269 269 267 267 268 266 266 266 267 267 266 266 265 263